Date,TemperatureHighF,TemperatureAvgF,TemperatureLowF,DewpointHighF,DewpointAvgF,DewpointLowF,HumidityHigh,HumidityAvg,HumidityLow,PressureMaxIn,PressureMinIn,WindSpeedMaxMPH,WindSpeedAvgMPH,GustSpeedMaxMPH,PrecipitationSumIn
2013-9-1,68,59,54,50,47,46,79,66,51,29.79,29.76,13,5,16,0.00
2013-9-4,83,70,58,50,44,30,71,43,15,30.14,30.04,26,8,27,0.00
2013-9-5,70,58,52,52,47,41,85,68,42,30.21,30.00,34,7,45,0.00
2013-9-6,69,57,49,49,46,44,89,69,45,30.30,30.20,24,8,25,0.01
2013-9-7,76,60,43,49,46,42,96,65,33,30.29,30.12,18,6,19,0.00
2013-9-8,73,61,50,52,47,43,85,63,35,30.21,30.17,19,6,23,0.00
2013-9-9,80,65,48,48,42,31,78,49,18,30.21,30.07,20,8,23,0.00
2013-9-10,83,68,52,49,44,40,68,44,23,30.11,30.01,16,6,19,0.00
2013-9-11,85,71,54,51,45,39,66,42,20,30.14,30.05,17,6,23,0.00
2013-9-12,87,74,58,50,44,39,56,37,19,30.11,29.97,16,6,18,0.00
2013-9-13,80,70,58,48,44,38,63,41,24,30.02,29.80,17,6,18,0.00
2013-9-14,86,70,55,51,47,43,70,48,23,29.83,25.95,17,7,19,0.00
2013-9-15,86,69,57,51,43,25,69,44,11,29.72,26.01,27,8,28,0.00
2013-9-16,68,58,48,47,45,41,84,63,45,29.83,29.71,18,7,22,0.00
2013-9-17,55,49,43,49,43,40,91,80,65,29.97,29.74,16,4,21,0.37
2013-9-18,64,50,38,42,37,33,94,66,33,30.09,29.97,13,4,14,0.00
2013-9-19,78,57,38,40,34,28,83,49,16,30.05,29.79,20,5,22,0.00
2013-9-20,75,56,41,46,37,29,84,53,19,29.80,29.51,22,8,28,0.02
2013-9-21,60,51,45,45,41,39,83,68,46,29.75,29.60,20,7,24,0.00
2013-9-22,58,49,44,47,41,38,84,75,56,29.84,29.72,26,11,34,0.00
2013-9-23,62,54,50,45,41,37,72,63,45,29.95,29.84,29,9,31,0.00
2013-9-24,53,48,42,42,39,34,85,72,54,29.91,29.79,23,7,28,0.00
2013-9-25,50,42,35,37,34,30,90,73,51,30.00,29.78,24,6,26,0.00
2013-9-26,52,42,32,38,33,29,90,73,49,30.18,30.00,17,6,21,0.00
2013-9-27,59,45,33,44,36,24,90,72,26,30.18,30.01,26,11,30,0.00
2013-9-28,62,53,46,48,45,41,93,75,50,30.01,29.55,45,13,47,0.54
2013-9-29,50,45,41,48,42,38,94,88,75,29.71,29.52,29,10,35,1.28
2013-9-30,51,44,38,48,36,32,93,73,57,30.01,29.57,36,10,37,0.08